Location: Newark
(50.4375°N, 16.6489°E)
Time: 07:21:48
(UTC+00:00)

Envisat - Pass Details

Date: 23 September 2019
Orbit: 764 x 766 km, 98.1° (Epoch: 19 October)

Event Time Altitude Azimuth Distance (km) Brightness Sun altitude
Rises 17:32:27 0° 186° (S) 3,221 6.2 -7.5°
Reaches altitude 10° 17:34:53 10° 194° (SSW) 2,300 5.5 -7.9°
Maximum altitude 17:39:38 40° 263° (W) 1,124 4.6 -8.7°
Drops below altitude 10° 17:44:26 10° 333° (NNW) 2,315 6.1 -9.4°
Sets 17:46:54 0° 341° (NNW) 3,246 6.7 -9.8°
